Retour au catalogue

BREEZE-KM R/B

ActifPO
NORAD 39486·ROCKET BODY·🇷🇺 Russia

Lancé Dec 25, 2013 depuis Plesetsk Cosmodrome

Loading…

Prochains Passages (prochaines 24 heures)

TLE

FraisSource: Space-Track

Époque: Sep 14, 2026, 10:02 UTC

1 39486U 13076D   26257.41831695  .00000008  00000-0 -16652-4 0  9999
2 39486  82.4782 247.2157 0233448 152.0761 209.3102 12.82992764595698

Suivez BREEZE-KM R/B en temps réel avec AllMySat

Download on the App Store